Weather History for Chesapeake, VA

Change the Weather History Date:

Friday, September 27, 2013

  Actual Average (KORF) Record (KORF)
Temperature  
Mean Temperature 62 °F 69 °F  
Max Temperature 73 °F 76 °F 92 °F (1970)
Min Temperature 51 °F 61 °F 50 °F (1963)
Degree Days  
Heating Degree Days 3 1  
Month to date heating degree days 5  
Since 1 July heating degree days 5  
Cooling Degree Days 0 5  
Month to date cooling degree days 217  
Year to date cooling degree days 1552  
Growing Degree Days 12 (Base 50)    
Moisture  
Dew Point 53 °F    
Average Humidity 72    
Maximum Humidity 100    
Minimum Humidity 46    
Precipitation  
Precipitation 0.00 in 0.15 in 2.86 in (1985)
Month to date precipitation 4.35  
Year to date precipitation 36.29  
Snow  
Snow 0.00 in 0.00 in 0.00 in (2002)
Month to date snowfall 0.0  
Since 1 July snowfall 0.0  
Snow Depth -    
Sea Level Pressure  
Sea Level Pressure 30.12 in    
Wind  
Wind Speed 4 mph (NE)    
Max Wind Speed 20 mph    
Max Gust Speed 26 mph    
Visibility 10 miles    
Events      
T = Trace of Precipitation, MM = Missing Value Source: NWS Daily Summary

Daily Weather History Graph

Daily Weather History Graph

Search for Another Location

Airport:

Trip Planner

Search our weather history database for the weather conditions in past years. The results will help you decide how hot, cold, wet, or windy it might be!

Date:

Astronomy

Sep. 27, 2013 Rise Set
Actual Time 6:57 AM EDT 6:54 PM EDT
Civil Twilight 6:31 AM EDT 7:20 PM EDT
Nautical Twilight 6:01 AM EDT 7:50 PM EDT
Astronomical Twilight 5:31 AM EDT 8:20 PM EDT
Moon No Moon Rise 2:22 PM EDT (9/27)
Length of Visible Light 12h 48m
Length of Day
11h 56m
Last Quarter, 45% of the Moon is Illuminated
Sep 27
Last Quarter
Oct 4
New
Oct 11
First Quarter
Oct 18
Full
Oct 26
Last Quarter

Hourly Weather History & Observations

Time (EDT) Temp. Dew Point Humidity Pressure Visibility Wind Dir Wind Speed Gust Speed Precip Events Conditions
12:15 AM 55.4 °F 53.6 °F 94% 30.04 in 10.0 mi Calm Calm - N/A   Clear
12:35 AM 55.4 °F 53.6 °F 94% 30.04 in 10.0 mi Calm Calm - N/A   Clear
12:55 AM 55.4 °F 55.4 °F 100% 30.04 in 10.0 mi Calm Calm - N/A   Clear
1:15 AM 55.4 °F 53.6 °F 94% 30.04 in 10.0 mi Calm Calm - N/A   Clear
1:35 AM 55.4 °F 53.6 °F 94% 30.04 in 10.0 mi Calm Calm - N/A   Clear
1:55 AM 53.6 °F 50.0 °F 88% 30.05 in 10.0 mi Calm Calm - N/A   Clear
2:15 AM 55.4 °F 53.6 °F 94% 30.05 in 10.0 mi Calm Calm - N/A   Clear
2:35 AM 53.6 °F 51.8 °F 94% 30.05 in 10.0 mi Calm Calm - N/A   Clear
2:55 AM 53.6 °F 51.8 °F 94% 30.04 in 10.0 mi Calm Calm - N/A   Clear
3:15 AM 53.6 °F 51.8 °F 94% 30.04 in 10.0 mi Calm Calm - N/A   Clear
3:35 AM 53.6 °F 51.8 °F 94% 30.04 in 10.0 mi Calm Calm - N/A   Clear
3:55 AM 53.6 °F 53.6 °F 100% 30.05 in 10.0 mi Calm Calm - N/A   Clear
4:15 AM 53.6 °F 51.8 °F 94% 30.05 in 10.0 mi Calm Calm - N/A   Clear
4:35 AM 51.8 °F 50.0 °F 94% 30.05 in 10.0 mi Calm Calm - N/A   Clear
4:55 AM 51.8 °F 50.0 °F 94% 30.05 in 10.0 mi Calm Calm - N/A   Clear
5:15 AM 53.6 °F 51.8 °F 94% 30.06 in 10.0 mi Calm Calm - N/A   Clear
5:35 AM 53.6 °F 51.8 °F 94% 30.06 in 10.0 mi Calm Calm - N/A   Clear
5:55 AM 51.8 °F 48.2 °F 88% 30.07 in 10.0 mi Calm Calm - N/A   Clear
6:15 AM 51.8 °F 48.2 °F 88% 30.08 in 10.0 mi Calm Calm - N/A   Clear
6:35 AM 53.6 °F 50.0 °F 88% 30.08 in 10.0 mi Calm Calm - N/A   Scattered Clouds
6:55 AM 53.6 °F 51.8 °F 94% 30.08 in 10.0 mi Calm Calm - N/A   Overcast
7:15 AM 55.4 °F 53.6 °F 94% 30.09 in 10.0 mi Calm Calm - N/A   Overcast
7:35 AM 55.4 °F 55.4 °F 100% 30.10 in 10.0 mi Calm Calm - N/A   Overcast
7:55 AM 57.2 °F 55.4 °F 94% 30.11 in 10.0 mi Calm Calm - N/A   Overcast
8:15 AM 62.6 °F 57.2 °F 82% 30.11 in 10.0 mi Calm Calm - N/A   Overcast
8:35 AM 68.0 °F 57.2 °F 68% 30.12 in 10.0 mi NE 8.1 mph - N/A   Mostly Cloudy
8:55 AM 68.0 °F 55.4 °F 64% 30.12 in 10.0 mi NNE 10.4 mph 16.1 mph N/A   Scattered Clouds
9:15 AM 69.8 °F 55.4 °F 60% 30.13 in 10.0 mi NE 12.7 mph 18.4 mph N/A   Scattered Clouds
9:35 AM 69.8 °F 53.6 °F 56% 30.13 in 10.0 mi NE 17.3 mph - N/A   Scattered Clouds
9:55 AM 71.6 °F 53.6 °F 53% 30.14 in 10.0 mi NE 15.0 mph 24.2 mph N/A   Mostly Cloudy
10:15 AM 71.6 °F 53.6 °F 53% 30.14 in 10.0 mi NE 17.3 mph 23.0 mph N/A   Mostly Cloudy
10:35 AM 71.6 °F 51.8 °F 50% 30.15 in 10.0 mi NNE 10.4 mph 21.9 mph N/A   Scattered Clouds
10:55 AM 71.6 °F 50.0 °F 46% 30.15 in 10.0 mi NNE 16.1 mph 21.9 mph N/A   Clear
11:15 AM 71.6 °F 50.0 °F 46% 30.15 in 10.0 mi NNE 13.8 mph 21.9 mph N/A   Clear
11:35 AM 71.6 °F 50.0 °F 46% 30.16 in 10.0 mi NE 15.0 mph - N/A   Scattered Clouds
11:55 AM 71.6 °F 51.8 °F 50% 30.16 in 10.0 mi NE 15.0 mph - N/A   Mostly Cloudy
12:15 PM 73.4 °F 51.8 °F 47% 30.16 in 10.0 mi ENE 15.0 mph - N/A   Mostly Cloudy
12:35 PM 73.4 °F 51.8 °F 47% 30.15 in 10.0 mi NE 16.1 mph 23.0 mph N/A   Mostly Cloudy
12:55 PM 71.6 °F 51.8 °F 50% 30.15 in 10.0 mi NE 15.0 mph - N/A   Scattered Clouds
1:15 PM 73.4 °F 51.8 °F 47% 30.14 in 10.0 mi NNE 8.1 mph 20.7 mph N/A   Scattered Clouds
1:35 PM 73.4 °F 51.8 °F 47% 30.14 in 10.0 mi NE 13.8 mph 23.0 mph N/A   Scattered Clouds
1:55 PM 71.6 °F 53.6 °F 53% 30.13 in 10.0 mi NNE 13.8 mph 20.7 mph N/A   Mostly Cloudy
2:15 PM 71.6 °F 55.4 °F 57% 30.13 in 10.0 mi NNE 11.5 mph 21.9 mph N/A   Overcast
2:35 PM 73.4 °F 55.4 °F 53% 30.13 in 10.0 mi NE 19.6 mph 26.5 mph N/A   Mostly Cloudy
2:55 PM 71.6 °F 55.4 °F 57% 30.13 in 10.0 mi NE 18.4 mph 24.2 mph N/A   Mostly Cloudy
3:15 PM 71.6 °F 55.4 °F 57% 30.12 in 10.0 mi ENE 13.8 mph - N/A   Mostly Cloudy
3:35 PM 73.4 °F 53.6 °F 50% 30.12 in 10.0 mi NNE 16.1 mph 20.7 mph N/A   Scattered Clouds
3:55 PM 71.6 °F 53.6 °F 53% 30.13 in 10.0 mi North 6.9 mph - N/A   Mostly Cloudy
4:15 PM 73.4 °F 53.6 °F 50% 30.13 in 10.0 mi NNE 9.2 mph - N/A   Mostly Cloudy
4:35 PM 73.4 °F 53.6 °F 50% 30.13 in 10.0 mi NE 11.5 mph - N/A   Mostly Cloudy
4:55 PM 69.8 °F 53.6 °F 56% 30.14 in 10.0 mi NE 13.8 mph - N/A   Overcast
5:15 PM 71.6 °F 51.8 °F 50% 30.14 in 10.0 mi NE 13.8 mph 17.3 mph N/A   Scattered Clouds
5:35 PM 71.6 °F 51.8 °F 50% 30.14 in 10.0 mi NNE 13.8 mph - N/A   Scattered Clouds
5:55 PM 69.8 °F 51.8 °F 53% 30.14 in 10.0 mi NE 12.7 mph 19.6 mph N/A   Clear
6:15 PM 69.8 °F 51.8 °F 53% 30.15 in 10.0 mi NNE 11.5 mph 17.3 mph N/A   Clear
6:35 PM 68.0 °F 53.6 °F 60% 30.15 in 10.0 mi NE 6.9 mph - N/A   Clear
6:55 PM 66.2 °F 53.6 °F 64% 30.16 in 10.0 mi Calm Calm - N/A   Clear
7:15 PM 64.4 °F 53.6 °F 68% 30.16 in 10.0 mi Calm Calm - N/A   Clear
7:35 PM 64.4 °F 53.6 °F 68% 30.16 in 10.0 mi Calm Calm - N/A   Clear
7:55 PM 64.4 °F 53.6 °F 68% 30.17 in 10.0 mi Calm Calm - N/A   Clear
8:15 PM 62.6 °F 53.6 °F 72% 30.17 in 10.0 mi Calm Calm - N/A   Clear
8:35 PM 62.6 °F 53.6 °F 72% 30.18 in 10.0 mi Calm Calm - N/A   Clear
8:55 PM 60.8 °F 53.6 °F 77% 30.18 in 10.0 mi Calm Calm - N/A   Clear
9:15 PM 60.8 °F 55.4 °F 82% 30.18 in 10.0 mi Calm Calm - N/A   Clear
9:35 PM 57.2 °F 53.6 °F 88% 30.19 in 10.0 mi Calm Calm - N/A   Clear
9:55 PM 60.8 °F 53.6 °F 77% 30.19 in 10.0 mi Calm Calm - N/A   Clear
10:15 PM 60.8 °F 53.6 °F 77% 30.19 in 10.0 mi Calm Calm - N/A   Clear
10:35 PM 60.8 °F 53.6 °F 77% 30.19 in 10.0 mi Calm Calm - N/A   Clear
10:55 PM 60.8 °F 53.6 °F 77% 30.19 in 10.0 mi Calm Calm - N/A   Clear
11:15 PM 57.2 °F 53.6 °F 88% 30.19 in 10.0 mi Calm Calm - N/A   Clear
11:35 PM 55.4 °F 51.8 °F 88% 30.19 in 10.0 mi Calm Calm - N/A   Mostly Cloudy
11:55 PM 57.2 °F 51.8 °F 82% 30.19 in 10.0 mi Calm Calm - N/A   Mostly Cloudy